DECAYED

STARLINK-31023, 58522 (Decayed)

Orbit data source: Space-Track

STARLINK-31023, 58522 was a payload satellite owned by SpaceX/Seattle (US) in LEO that was launched on Thu, 07 Dec 2023 UTC via an FALCON 9 launch vehicle from the Air Force Eastern Test Range (AFETR). Payload-class satellites include a variety of spacecraft equipped with specific instruments for various scientific and technological missions. These include communications satellites like Starlink; space stations such as the ISS; scientific satellites like the Hubble; Earth observation satellites from companies like Planet Labs, Umbra, and HawkEye 360; GPS; miniature CubeSats for education and research; and military/defense satellites.

Not visible in the next 10 days
Identifier
58522, 2023-191Q
Orbit
Decayed
Country
Flag of USUS
Related business
Manufacturer
SpaceX/Seattle
Mission
Decayed Commercial Communications
Bus & Motor
STARLINK V2M, Unknown motor
Mass
730 kg wet, ~700 kg dry
Launch date (UTC)
2023-12-07 (3 years ago)
Launch vehicle
FALCON 9
Launch site
Air Force Eastern Test Range (AFETR)
Object type
Payload
Rocket body
Debris
Shape & HBR
Box + 2 Pan, 17.7 m
Radar Cross Section
33.884 m², Large (>1 m²)

Expand to show TLE details & history
Last TLE update: 3 months ago

TLE from 3 months ago
0 STARLINK-31023
1 58522U 23191Q   26090.10213876  .13770139  90106-5  42327-2 0  9995
2 58522  42.9935 332.1501 0005819 264.4179  95.6045 16.25707375128864
Epoch: 2026-03-31T02:27Z
TLE epoch observation values (Epoch: 2026-03-31T02:27:04.788Z)
Latitude
-0.00004°
Longitude
106.89596°
Altitude
204.242 km
Speed
7.786 km/s
True Right ascension
22h 08m 36s
True Declination
0° 00' 00"
Sunlit
Object was in daylight at epoch
Visualization orbit readout
Latitude
Unknown
Longitude
Unknown
Altitude
Unknown
Speed
Unknown
Apparent Right ascension
Unknown
Apparent Declination
Unknown
Sunlit
N/A
Visualization observer readout
Local Sidereal Time
21:39:53
Azimuth
Unknown
Elevation
Unknown
Doppler factor
Unknown
Orbital elements
Apogee altitude
209.961 km
Perigee altitude
202.298 km
Semi-major axis
6,584.267 km
Eccentricity
0.00058
Inclination
42.9935°
RAAN
332.1501°
Arg. of periapsis
264.4179°
True anomaly
95.67086°
Mean anomaly
95.6045°
Eccentric anomaly
95.63768°
Mean motion
4.06239 °/min
Orbital period
88.62 mins
BSTAR
0.0042327
Loading maneuver chart data...
Computing Atmospheric mass density...
Loading historical data...
Loading historical data...
Loading historical data...
Loading historical data...
Loading historical data...
Loading historical data...
Loading historical data...

Documentation

Showing up to 5 results
|